Location: Monfort
(47.1967°N, 0.2115°W)
Time: 03:44:14
(UTC+00:00)

Cosmos 292 Rocket - Pass Details

Date: 24 October 2020
Orbit: 673 x 695 km, 74.0° (Epoch: 01 December)

Event Time Altitude Azimuth Distance (km) Brightness Sun altitude
Rises 18:01:31 0° 187° (S) 3,021 7.3 -11.6°
Reaches altitude 10° 18:03:50 10° 183° (S) 2,114 6.4 -12.0°
Maximum altitude 18:08:28 53° 107° (ESE) 837 3.9 -12.8°
Drops below altitude 10° 18:13:09 10° 31° (NNE) 2,144 6.0 -13.6°
Sets 18:15:31 0° 26° (NNE) 3,069 6.8 -14.0°
